Location: Unspecified
(20.0000°S, 0.0000°E)
Time: 09:31:18
(UTC+00:00)

NUDT-PHONESAT - Pass Details

Date: 22 July 2019
Orbit: 489 x 505 km, 97.4° (Epoch: 19 August)

Event Time Altitude Azimuth Distance (km) Brightness Sun altitude
Rises 05:41:21 0° 20° (NNE) 2,574 ? -12.4°
Reaches altitude 10° 05:43:26 10° 24° (NNE) 1,701 ? -12.0°
Maximum altitude 05:47:02 55° 102° (ESE) 609 ? -11.2°
Drops below altitude 10° 05:50:41 10° 181° (S) 1,730 ? -10.3°
Sets 05:52:49 0° 185° (S) 2,623 ? -9.9°
